sat.trackr.live / text

‹ back to catalog

ARABSAT-5C

NORAD 37810 · 2011-049B

PAYLOAD ACTIVE UNKNOWN

§ Identity

Operator
Country
AB
Launch date
2011-09-21
Launch site
FRGUI
Launch vehicle
Mass (kg)
RCS (m²)
11.15

Purposes: comms

External: N2YO · Heavens-Above · Gunter

§ Orbital elements

Epoch: 2026-09-14T19:01:51.255840Z

Period
1,436.07 min
Inclination
0.0552°
Eccentricity
0.0004278
Mean motion
1.00274010 rev/d
Perigee alt
35,767.9 km
Apogee alt
35,804.0 km
Semi-major
42,164.1 km
B*
0.0000e+0
RAAN
348.1880°
Arg perigee
195.7145°
Mean anomaly
115.3590°
Rev number
5,493

§ Raw data

ARABSAT-5C1 37810U 11049B   26257.79295435  .00000116  00000+0  00000+0 0  99962 37810   0.0552 348.1880 0004278 195.7145 115.3590  1.00274010 54938

JSON: /api/v1/satellites/37810 · /tle

For live sub-satellite position, see the globe view (requires WebGL).

§ Visibility from observer

Set your observer location to see the next 7 days of passes ≥ 10°. The values pass through the URL so the page stays shareable.

No JS? Fill the form by hand. The geolocation button needs JavaScript.